Location: Asheville, NC
(35.6000°N, 82.5500°W)
Time: 22:21:48
(UTC-04:00)

CUTE-I - Pass Details

Date: 03 January 2018
Orbit: 811 x 825 km, 98.7° (Epoch: 26 April)

Event Time Altitude Azimuth Distance (km) Brightness Sun altitude
Rises 19:37:38 0° 219° (SW) 3,336 ? -25.3°
Reaches altitude 10° 19:42:09 10° 255° (WSW) 2,406 ? -26.2°
Maximum altitude 19:43:27 11° 269° (W) 2,348 ? -26.5°
Drops below altitude 10° 19:44:45 10° 284° (WNW) 2,407 ? -26.7°
Sets 19:49:19 0° 320° (NW) 3,342 ? -27.7°
